Location: Unspecified
(0.0000°N, 0.0000°E)
Time: 21:35:38
(UTC+00:00)

Vanguard 1 - Pass Details

Date: 23 June 2025
Orbit: 649 x 3822 km, 34.2° (Epoch: 12 July)

Event Time Altitude Azimuth Distance (km) Brightness Sun altitude
Exits shadow 04:34:04 38° 226° (SW) 1,213 10.0 -20.1°
Maximum altitude 04:36:12 82° 144° (SE) 906 9.8 -19.7°
Drops below altitude 10° 04:43:56 10° 55° (NE) 3,413 14.1 -17.9°
Sets 04:47:50 0° 55° (NE) 4,869 15.3 -17.0°
